Погода в Бийске

Погода в Бийске : погода сейчас, прогноз погоды и архив. Всё, что Вы хотите узнать о погоде в Бийске!

Хотите узнать прогноз погоды в Бийске? Тогда Вам сюда: Погода в Бийске

Поиск расширенной информации на нашем сайте:

Другие новости

Новости СМИ2

Главная страница сайта

Новости сайта

03.07.2017

Напоминаем, что на нашем специализированном сайте Метеоцентр.Азия вы можете получить высокодетализированные автоматические прогнозы погоды по пунктам России, СНГ и мира в авиационном формате (включающие направление и скорость ветра, видимость, явления погоды, количество и форму облачности, нижнюю и верхнюю границу облачности).


Погода в Бийске - сегодня

Время (UTC), дата Ветер
(°,м/с) 
Видим.   Явления Облачность Т
(°С)
Тd
(°С)
f(%) Тe
(°С)
Pmin
(гПа)
dP
(гПа)
Po
(мм)
O2
(г/м3)
Тmin Tmax R s Состояние
почвы
18 15.08.17 010 (С) 20000 м    8/3 600 м средняя, верхняя 
[Sc|Ac trans|Ci fib]
+12.4 +7.4 72 +13  1016.8  -0.5  743  285           
21 15.08.17 330 (СЗ) 20000 м    4/0 верхняя 
[Ci fib]
+8.3 +5.6 83 +8  1016.2  -1.1  742  289           
00 16.08.17 320 (СЗ) 20000 м    6/3 600 м средняя, верхняя 
[Sc diur, vesp|Ac trans|Cc]
+6 +4.9 93 +7  1016.2  -0.2  742  292  +4.2        сухая 
03 16.08.17 350 (С) 20000 м    8/8 600 м 
[Sc]
+14.5 +9.2 70 +15  1015.4  742  282           
06 16.08.17 340 (С) 20000 м    8/8 600 м 
[Sc]
+18.3 +10.9 62 +22  1014.8  -0.2  741  278           
09 16.08.17 360 (С) 20000 м    8/8 600 м кучево-дожд., верхняя 
[Cb cap|Ci fib]
+21.6 +9.9 47 +23  1013.8  -0.7  741  275           
12 16.08.17 020 (С) 20000 м    6/6 600 м кучево-дожд. 
[Cb cap]
+20.3 +10 52 +22  1014.1  0.2  741  276    +23.4       
15 16.08.17 360 (С) 20000 м    5/5 600 м 
[Sc]
+16.9 +10 64 +19  1016  1.5  742  280           
18 16.08.17 010 (С) 20000 м    ясно 
+14.3 +7.8 65 +15  1016  -0.1  742  283           
21 16.08.17 360 (С) 20000 м    ясно 
+12.3 +6.7 69 +14  1016.1  -0.2  742  285           
00 17.08.17 330 (СЗ) 20000 м    5/5 600 м 
[Sc]
+10 +7.7 86 +11  1016.8  0.5  742  287  +9.5        сухая 
03 17.08.17 350 (С) 20000 м    ясно 
+18.4 +8.8 54 +19  1015.8  -0.2  742  279           
06 17.08.17 340 (С) 20000 м    3/0 верхняя 
[Ci fib]
+22.2 +7.3 38 +22  1014.8  -0.7  742  275           
09 17.08.17 350 (С) 20000 м    8/5 1000 м верхняя 
[Cu hum|Ci fib]
+23.2 +7.8 37 +23  1014.3  -0.4  741  274           
12 17.08.17 360 (С) 20000 м    3/0 верхняя 
[Ci fib]
+22.1 +6.4 36 +22  1014.2  -0.2  741  275    +23.7       
15 17.08.17 330 (СЗ) 20000 м    3/0 верхняя 
[Ci fib]
+12.2 +8 75 +13  1016  0.9  742  285           
18 17.08.17 тихо ()   20000 м    ясно 
+8.4 +6.7 89 +8  1016.3  742  289           
21 17.08.17 320 (СЗ) 20000 м    ясно 
+5.9 +4.6 91 +7  1015.7  -1  741  292           
00 18.08.17 тихо ()   10 км  дымка  6/0 средняя, верхняя 
[Ac lent|Cc]
+6.5 +5.5 93 +7  1015.6  0.1  741  291  +4.3        сухая 
03 18.08.17 110 (В) 20000 м    8/0 верхняя 
[Cc]
+19.5 +9.7 53 +22  1014.2  -0.2  741  277           
06 18.08.17 010 (С) 20000 м    9/6 600 м верхняя 
[Sc diur, vesp|Ci]
+23.4 +6.7 34 +23  1012.9  -0.8  740  274           
09 18.08.17 300 (СЗ) 20000 м    9/6 600 м верхняя 
[Sc diur, vesp|Cc]
+23.7 +7.7 36 +24  1012.2  -0.7  740  273           
12 18.08.17 290 (З) 20000 м    10/5 600 м средняя, верхняя 
[Sc|Ac trans|Cc]
+23.3 +8.1 38 +23  1012.5  0.3  740  273    +24.9       
15 18.08.17 300 (СЗ) 20000 м    9/3 600 м средняя, верхняя 
[Sc diur, vesp|Ac trans|Cc]
+15.9 +10.6 71 +19  1014.5  1.2  741  280           
18 18.08.17 300 (СЗ) 20000 м    4/0 верхняя 
[Ci fib]
+13 +11.1 88 +17  1014.9  0.1  741  283           
Время (UTC), дата Ветер
(°,м/с) 
Видим.   Явления Облачность Т
(°С)
Тd
(°С)
f(%) Тe
(°С)
Pmin
(гПа)
dP
(гПа)
Po
(мм)
O2
(г/м3)
Тmin Tmax R s Состояние
почвы

Для получения пояснительной информации подведите курсор к названию столбца.

ПОГОДА в Бийске - архив

Всё, что Вы хотите узнать о погоде в Бийске - удобно и подробно!

Выберите нужную дату (начиная с 1 января 2015* года) и нажмите кнопку "Найти".
Будут отображены архивные сводки погоды по пункту Бийск, начиная с указанной даты.


Отображать данные в формате CSV (для использования в таблицах Excel)


Внимание! Наш архив погоды предназначен исключительно для личного некоммерческого использования в познавательных целях. Если Вам необходимы официальные справки о состоянии погоды (для производственных, юридических, коммерческих и т.п. целей), обращайтесь в органы Росгидромета.

*Примечание: данная дата относится к архиву по метеостанциям СССР (Россия, СНГ, Балтия).
Архив по метеостанциям Зарубежной Европы и Азии (кроме Китая) хранится 10 дней, по другим регионам земного шара (Китай, Африка, Америка, Австралия, Океания) - 1 день.

Бийск - район местоположения метеостанции


Название, широта, долгота, высота метеостанции:
Бийск (Зональная) 52.7°ш. 84.9°д. 228 м над ур. моря [Российская Федерация]

Дополнительная информация

В oтличие oт бoльшинства пoгoдных сайтoв мы публикуем пoдрoбную метеoинфoрмацию в детальнoм прoфессиoнальнoм фoрмате.

Характеристики температуры и влажнoсти вoздуха измеряются на высoте 2 м в тени вдали oт зданий и деревьев.
Скoрoсть ветра измеряется на высoте 10 м (на урoвне рoста челoвека скoрoсть ветра ниже в 1.5-2 раза). Если метеoстанция нахoдится в гoрoде или в лесу, тo скoрoсть ветра занижена на 2-4 м/с пo сравнению с oткрытым местoм. Скoрoсть ветра над акватoриями крупных рек и oзёр, а также на вершинах хoлмoв на 2-5 м/с выше, чем в oбычных услoвиях.
Атмoсфернoе давление в разных тoчках местнoсти мoжет значительнo oтличаться oт давления на метеoстанции, в зависимoсти oт услoвий рельефа (при пoдъёме на 10 м давление пoнижается примернo на 1 мм рт.ст.).